TimeHST,TemperatureF,Dew PointF,Humidity,Sea Level PressureIn,VisibilityMPH,Wind Direction,Wind SpeedMPH,Gust SpeedMPH,PrecipitationIn,Events,Conditions,WindDirDegrees,DateUTC
12:53 AM,78.1,64.0,62,30.01,10.0,ESE,5.8,-,N/A,,Clear,110,2013-09-11 10:53:00
1:53 AM,77.0,63.0,62,29.99,10.0,East,4.6,-,N/A,,Clear,100,2013-09-11 11:53:00
2:53 AM,77.0,62.1,60,29.98,10.0,ESE,6.9,-,N/A,,Clear,120,2013-09-11 12:53:00
3:53 AM,77.0,64.0,64,29.98,10.0,East,6.9,-,N/A,,Clear,100,2013-09-11 13:53:00
4:53 AM,77.0,64.0,64,29.99,10.0,East,4.6,-,N/A,,Clear,100,2013-09-11 14:53:00
5:53 AM,77.0,62.1,60,30.01,10.0,ESE,5.8,-,N/A,,Clear,120,2013-09-11 15:53:00
6:53 AM,78.1,63.0,60,30.02,10.0,ESE,5.8,-,N/A,,Scattered Clouds,120,2013-09-11 16:53:00
7:53 AM,81.0,66.9,62,30.04,10.0,SSE,4.6,-,N/A,,Clear,150,2013-09-11 17:53:00
8:53 AM,81.0,68.0,65,30.05,10.0,SSE,4.6,-,N/A,,Overcast,160,2013-09-11 18:53:00
9:53 AM,82.9,69.1,63,30.05,10.0,South,8.1,-,N/A,,Mostly Cloudy,180,2013-09-11 19:53:00
10:53 AM,84.9,69.1,59,30.04,10.0,SW,9.2,-,N/A,,Clear,220,2013-09-11 20:53:00
11:53 AM,84.0,71.1,65,30.02,10.0,WSW,9.2,-,N/A,,Partly Cloudy,250,2013-09-11 21:53:00
12:53 PM,84.0,69.1,61,30.00,10.0,WSW,6.9,-,N/A,,Partly Cloudy,240,2013-09-11 22:53:00
1:53 PM,84.9,68.0,57,29.96,10.0,SW,9.2,-,N/A,,Clear,230,2013-09-11 23:53:00
2:53 PM,87.1,63.0,44,29.95,10.0,SSW,8.1,-,N/A,,Clear,210,2013-09-12 00:53:00
3:53 PM,84.9,68.0,57,29.95,10.0,SSW,10.4,-,N/A,,Partly Cloudy,200,2013-09-12 01:53:00
4:53 PM,84.0,68.0,58,29.95,10.0,South,10.4,-,N/A,,Clear,180,2013-09-12 02:53:00
5:53 PM,84.0,68.0,58,29.96,10.0,South,12.7,-,N/A,,Mostly Cloudy,180,2013-09-12 03:53:00
6:53 PM,82.0,69.1,65,29.98,10.0,SSE,11.5,-,N/A,,Partly Cloudy,150,2013-09-12 04:53:00
7:53 PM,81.0,70.0,69,29.99,10.0,SSE,9.2,-,N/A,,Mostly Cloudy,160,2013-09-12 05:53:00
8:53 PM,81.0,70.0,69,30.01,10.0,SSE,10.4,-,N/A,,Clear,150,2013-09-12 06:53:00
9:53 PM,80.1,69.1,69,30.01,10.0,SE,9.2,-,N/A,,Clear,130,2013-09-12 07:53:00
10:53 PM,79.0,69.1,72,30.02,10.0,ESE,8.1,-,N/A,,Mostly Cloudy,120,2013-09-12 08:53:00
11:53 PM,80.1,69.1,69,30.01,10.0,SE,3.5,-,N/A,,Overcast,130,2013-09-12 09:53:00